Location: St Andrew
(49.4460°N, 2.5750°W)
Time: 17:05:11
(UTC+01:00)

Daily predictions for brighter satellites

Satellite Brightness Start Highest point End
(mag) Time Altitude Azimuth Time Altitude Azimuth Time Altitude Azimuth
Cosmos 2263 Rocket 3.0 21:52:55 10° SSE 21:57:44 31° ESE 22:02:36 10° NE
Cosmos 1726 2.2 21:57:24 10° NNW 22:01:06 77° W 22:04:45 10° S
Cosmos 2123 Rocket 4.1 21:56:15 10° S 22:02:19 61° E 22:08:27 10° NNE
Cosmos 1626 3.7 21:59:42 10° SE 22:02:27 20° E 22:05:14 10° NE
SPOT 1/Viking Rocket 3.8 22:01:00 10° SSE 22:06:03 60° ENE 22:11:08 10° N
Cosmos 1076 Rocket 4.4 22:02:14 10° SSW 22:06:30 53° WNW 22:10:47 10° N
Cosmos 371 Rocket 3.6 22:02:10 10° NNW 22:06:58 66° WSW 22:11:44 10° S
ERS-1 Rocket 3.5 22:04:14 10° S 22:09:11 60° WSW 22:14:13 10° NNW
Meteor 1-27 4.5 22:04:50 10° N 22:10:37 60° ENE 22:16:17 10° SSE
Cosmos 2151 3.6 22:10:56 10° SSE 22:14:56 39° E 22:18:59 10° NNE
EO 1 Delta rocket 3.9 22:12:27 10° SSE 22:17:03 74° ENE 22:21:54 10° N
Cosmos 2285 Rocket 4.2 22:13:43 10° NNW 22:20:02 64° ENE 22:26:21 10° SE
Cosmos 1725 Rocket 4.1 22:13:55 10° N 22:20:13 82° W 22:26:25 10° S
Cosmos 540 Rocket 3.8 22:16:33 10° NNW 22:21:39 55° ENE 22:26:35 11° SE
Cosmos 1300 3.2 22:17:56 10° NNW 22:21:44 59° W 22:25:29 10° S
Cosmos 1408 Rocket 4.3 22:18:34 10° SSW 22:22:48 56° WNW 22:27:06 10° N
ARGOS 3.5 22:24:32 10° S 22:29:55 65° WSW 22:35:19 10° NNW
SL-08 RB Rocket 3.9 22:25:59 10° S 22:30:34 72° WSW 22:35:14 10° NNW
Cosmos 1844 Rocket 4.5 22:28:07 10° ESE 22:30:37 13° E 22:33:07 10° ENE
Lacrosse 5 3.9 22:34:14 10° W 22:37:30 17° WSW 22:40:45 10° SSW
SPOT 5 3.6 22:36:43 10° S 22:41:35 55° W 22:46:43 10° NNW
Cosmos 1943 3.9 22:36:39 10° NW 22:42:04 49° WSW 22:47:30 10° S
Cosmos 1500 Rocket 3.6 22:40:00 10° S 22:44:27 88° WNW 22:48:56 10° N
CZ-3B DEB 4.4 22:35:07 10° WNW 22:46:05 69° N 22:59:02 10° E
Cosmos 1464 Rocket 4.4 22:40:08 10° N 22:46:07 49° ENE 22:51:21 14° SE
Landsat 7 3.8 22:42:51 11° SSE 22:47:21 89° WSW 22:52:10 10° NNW
SL-14 R/B 4.1 22:43:44 10° SSW 22:47:35 50° WNW 22:51:25 10° N
IGS 5A 3.6 22:44:11 14° SSE 22:47:41 63° ENE 22:51:50 10° N
H-2A R/B 2.5 22:44:37 10° S 22:49:57 66° WSW 22:55:25 10° NNW
Cosmos 2084 Rocket 3.3 22:49:28 10° NW 22:53:17 68° NE 22:56:21 15° SE
Cosmos 1455 2.2 22:50:24 10° N 22:54:17 75° E 22:57:16 16° SSE
CARTOSAT-1 3.6 22:51:49 14° SSE 22:55:26 80° ENE 22:59:47 10° NNW
Cosmos 1151 Rocket 3.8 22:53:11 10° NNW 22:57:28 50° W 23:01:40 10° S
Cosmos 304 Rocket 4.1 22:56:46 10° NNW 23:01:30 61° WSW 23:05:27 15° S
Terra 1.8 22:58:16 15° SSE 23:02:17 90° WSW 23:07:05 10° NNW
Cosmos 1805 Rocket 3.9 23:00:51 16° SSE 23:04:05 48° E 23:08:16 10° NNE
Abrixas 2.6 23:02:26 10° SW 23:05:00 39° SSE 23:07:34 10° E
CZ-3A R/B 0.6 23:04:45 10° W 23:05:21 22° WSW 23:05:21 22° WSW
CZ-4C R/B 3.0 23:02:16 14° S 23:06:11 31° ESE 23:11:21 10° NE
Cosmos 1633 Rocket 4.1 23:04:40 17° SE 23:07:12 30° E 23:11:03 10° NNE
Cosmos 2233 Rocket 4.5 23:02:25 10° NNW 23:08:31 58° W 23:14:31 10° S
Cosmos 2058 3.3 23:05:45 10° SSW 23:09:55 64° WNW 23:14:09 10° N
USA 234 3.4 23:05:28 10° ENE 23:11:51 52° SE 23:18:12 10° SSW
CZ-4 R/B 4.2 23:10:54 10° NNE 23:15:37 49° E 23:18:55 18° SSE
Cosmos 1354 Rocket 4.0 23:10:39 10° SSW 23:15:54 89° WNW 23:21:11 10° NNE
H-2A R/B 2.0 23:13:02 18° SSE 23:16:11 83° WSW 23:20:24 10° NNW
PSLV R/B 2.9 23:19:40 27° SSE 23:21:03 83° ENE 23:23:56 10° NNW
NOSS 3 (A) 4.5 23:25:50 11° SW 23:28:31 75° SE 23:31:59 10° NE
Cosmos 1869 3.2 23:26:19 10° N 23:30:17 84° W 23:32:40 23° S
Cosmos 2278 Rocket 3.8 23:31:07 15° ESE 23:33:07 18° E 23:36:43 10° ENE
SL-19 R/B 4.2 23:28:25 10° NNE 23:33:48 83° ESE 23:38:48 13° SSW
Cosmos 1626 3.6 23:34:11 10° SW 23:37:36 34° WNW 23:41:03 10° N
Cosmos 1933 4.1 23:33:46 10° N 23:37:42 43° ENE 23:39:50 23° SE
Cosmos 773 Rocket 4.5 23:32:51 10° NNW 23:38:03 54° ENE 23:41:40 19° SE
CZ-2C R/B 4.0 23:35:36 17° SE 23:39:42 44° ENE 23:44:56 10° N
Cosmos 1470 Rocket 4.4 23:38:55 22° SE 23:41:02 35° E 23:45:06 10° NNE
Cosmos 1844 4.4 23:38:24 21° SSE 23:41:21 35° ESE 23:46:23 10° NE
Cosmos 2263 Rocket 3.1 23:36:01 10° SW 23:41:26 50° NW 23:46:55 10° NNE
Spot 4 4.0 23:39:29 21° S 23:42:44 73° WSW 23:47:37 10° NNW
SOZ 4.4 23:39:40 10° WSW 23:43:21 86° NNW 23:45:29 10° ENE
Cosmos 1315 Rocket 4.3 23:46:38 20° ESE 23:47:54 23° E 23:51:04 10° NE
Cosmos 1400 Rocket 3.4 23:46:06 26° SSE 23:47:58 43° E 23:51:56 10° NNE
Cosmos 2242 Rocket 3.6 23:46:37 10° N 23:51:15 83° E 23:53:50 26° SSE
CZ-4C R/B 3.6 23:49:42 25° S 23:52:13 76° WSW 23:56:42 10° NNW
Sich 1 3.1 23:52:25 21° SSW 23:55:16 76° W 23:59:34 10° N
